TimeEST,TemperatureF,Dew PointF,Humidity,Sea Level PressureIn,VisibilityMPH,Wind Direction,Wind SpeedMPH,Gust SpeedMPH,PrecipitationIn,Events,Conditions,WindDirDegrees,DateUTC
12:15 AM,30.2,26.6,86,30.00,10.0,Calm,Calm,-,N/A,,Clear,0,2013-02-25 05:15:00
12:35 AM,30.0,27.5,90,30.00,10.0,Calm,Calm,-,N/A,,Clear,0,2013-02-25 05:35:00
1:15 AM,28.4,25.7,90,29.99,10.0,Calm,Calm,-,N/A,,Clear,0,2013-02-25 06:15:00
1:35 AM,29.8,26.6,88,30.00,10.0,Calm,Calm,-,N/A,,Clear,0,2013-02-25 06:35:00
1:55 AM,28.9,26.6,91,29.99,10.0,SE,3.5,-,N/A,,Clear,130,2013-02-25 06:55:00
2:15 AM,30.2,27.0,88,29.99,10.0,Calm,Calm,-,N/A,,Clear,0,2013-02-25 07:15:00
2:35 AM,29.3,27.0,91,29.99,10.0,Calm,Calm,-,N/A,,Clear,0,2013-02-25 07:35:00
2:55 AM,30.0,27.0,88,29.99,10.0,Calm,Calm,-,N/A,,Clear,0,2013-02-25 07:55:00
3:15 AM,29.5,27.3,92,29.97,10.0,Calm,Calm,-,N/A,,Clear,0,2013-02-25 08:15:00
3:35 AM,30.2,27.5,90,29.97,10.0,Calm,Calm,-,N/A,,Clear,0,2013-02-25 08:35:00
3:55 AM,30.2,27.5,90,29.97,10.0,Calm,Calm,-,N/A,,Clear,0,2013-02-25 08:55:00
4:15 AM,30.0,27.5,90,29.98,10.0,Calm,Calm,-,N/A,,Clear,0,2013-02-25 09:15:00
4:35 AM,30.0,28.2,93,29.98,10.0,Calm,Calm,-,N/A,,Clear,0,2013-02-25 09:35:00
4:55 AM,29.8,28.2,94,29.98,10.0,Calm,Calm,-,N/A,,Clear,0,2013-02-25 09:55:00
5:15 AM,30.9,28.2,90,29.98,10.0,Calm,Calm,-,N/A,,Clear,0,2013-02-25 10:15:00
5:35 AM,30.6,28.2,91,29.99,10.0,Calm,Calm,-,N/A,,Clear,0,2013-02-25 10:35:00
5:55 AM,31.5,28.4,88,29.99,10.0,Calm,Calm,-,N/A,,Clear,0,2013-02-25 10:55:00
6:15 AM,31.1,28.9,92,29.99,10.0,Calm,Calm,-,N/A,,Clear,0,2013-02-25 11:15:00
6:35 AM,31.5,28.4,88,29.99,10.0,Calm,Calm,-,N/A,,Clear,0,2013-02-25 11:35:00
6:55 AM,31.3,29.1,92,29.99,10.0,Calm,Calm,-,N/A,,Clear,0,2013-02-25 11:55:00
7:15 AM,30.9,28.8,92,29.99,10.0,Calm,Calm,-,N/A,,Clear,0,2013-02-25 12:15:00
7:35 AM,31.5,29.1,91,30.01,10.0,NW,3.5,-,N/A,,Clear,310,2013-02-25 12:35:00
7:55 AM,31.8,29.7,92,30.01,10.0,Calm,Calm,-,N/A,,Clear,0,2013-02-25 12:55:00
8:15 AM,32.2,30.0,92,30.03,10.0,Calm,Calm,-,N/A,,Clear,0,2013-02-25 13:15:00
8:35 AM,32.5,30.2,91,30.03,10.0,Calm,Calm,-,N/A,,Clear,0,2013-02-25 13:35:00
8:55 AM,32.9,30.9,92,30.05,10.0,Calm,Calm,-,N/A,,Clear,0,2013-02-25 13:55:00
9:15 AM,33.4,30.6,89,30.04,10.0,Calm,Calm,-,N/A,,Clear,0,2013-02-25 14:15:00
9:35 AM,34.3,31.1,88,30.04,10.0,Calm,Calm,-,N/A,,Clear,0,2013-02-25 14:35:00
9:55 AM,35.4,30.9,84,30.02,10.0,Calm,Calm,-,N/A,,Clear,0,2013-02-25 14:55:00
10:15 AM,36.5,32.0,84,30.03,10.0,Calm,Calm,-,N/A,,Clear,0,2013-02-25 15:15:00
10:35 AM,37.8,32.2,80,30.03,10.0,Calm,Calm,-,N/A,,Clear,0,2013-02-25 15:35:00
10:55 AM,38.5,31.5,76,30.02,10.0,Calm,Calm,-,N/A,,Clear,0,2013-02-25 15:55:00
11:15 AM,39.2,31.3,73,30.01,10.0,Calm,Calm,-,N/A,,Clear,0,2013-02-25 16:15:00
11:35 AM,41.0,31.5,69,30.01,10.0,Calm,Calm,-,N/A,,Clear,0,2013-02-25 16:35:00
11:55 AM,41.7,31.6,67,30.00,10.0,Calm,Calm,-,N/A,,Clear,0,2013-02-25 16:55:00
12:15 PM,43.3,34.0,70,29.99,10.0,Calm,Calm,-,N/A,,Clear,0,2013-02-25 17:15:00
1:15 PM,46.6,33.8,61,29.97,10.0,Calm,Calm,-,N/A,,Clear,0,2013-02-25 18:15:00
1:35 PM,47.8,32.9,56,29.97,10.0,Calm,Calm,-,N/A,,Scattered Clouds,0,2013-02-25 18:35:00
1:55 PM,49.5,32.5,52,29.97,10.0,Calm,Calm,-,N/A,,Mostly Cloudy,0,2013-02-25 18:55:00
2:15 PM,50.5,33.8,53,29.96,10.0,Calm,Calm,-,N/A,,Overcast,0,2013-02-25 19:15:00
2:35 PM,50.9,33.3,51,29.95,10.0,Calm,Calm,-,N/A,,Overcast,0,2013-02-25 19:35:00
2:55 PM,51.4,32.4,48,29.94,10.0,Calm,Calm,-,N/A,,Overcast,0,2013-02-25 19:55:00
3:15 PM,51.3,32.7,49,29.93,10.0,Calm,Calm,-,N/A,,Overcast,0,2013-02-25 20:15:00
3:35 PM,51.4,33.3,50,29.93,10.0,Calm,Calm,-,N/A,,Overcast,0,2013-02-25 20:35:00
3:55 PM,52.2,32.2,47,29.92,10.0,Calm,Calm,-,N/A,,Overcast,0,2013-02-25 20:55:00
4:15 PM,52.2,33.1,48,29.92,10.0,Calm,Calm,-,N/A,,Overcast,0,2013-02-25 21:15:00
4:35 PM,52.5,32.7,47,29.91,10.0,Calm,Calm,-,N/A,,Overcast,0,2013-02-25 21:35:00
4:55 PM,53.1,33.1,47,29.90,10.0,Calm,Calm,-,N/A,,Overcast,0,2013-02-25 21:55:00
5:15 PM,53.4,33.8,47,29.89,10.0,Calm,Calm,-,N/A,,Overcast,0,2013-02-25 22:15:00
5:35 PM,52.7,34.7,50,29.88,10.0,Calm,Calm,-,N/A,,Overcast,0,2013-02-25 22:35:00
5:55 PM,51.1,37.2,59,29.87,10.0,Calm,Calm,-,N/A,,Mostly Cloudy,0,2013-02-25 22:55:00
6:15 PM,49.1,38.1,66,29.87,10.0,Calm,Calm,-,N/A,,Mostly Cloudy,0,2013-02-25 23:15:00
6:35 PM,48.4,38.7,69,29.87,10.0,Calm,Calm,-,N/A,,Overcast,0,2013-02-25 23:35:00
6:55 PM,47.7,40.3,76,29.86,10.0,Calm,Calm,-,N/A,,Overcast,0,2013-02-25 23:55:00
7:15 PM,48.2,39.4,72,29.87,10.0,Calm,Calm,-,N/A,,Overcast,0,2013-02-26 00:15:00
7:35 PM,47.7,40.1,75,29.87,10.0,West,4.6,-,N/A,,Overcast,270,2013-02-26 00:35:00
7:55 PM,48.2,39.4,72,29.88,10.0,SW,3.5,-,N/A,,Overcast,230,2013-02-26 00:55:00
8:15 PM,47.7,39.9,75,29.89,10.0,WSW,3.5,-,N/A,,Overcast,250,2013-02-26 01:15:00
8:35 PM,50.2,39.6,67,29.87,10.0,Calm,Calm,-,N/A,,Overcast,0,2013-02-26 01:35:00
8:55 PM,50.2,40.5,69,29.89,10.0,Calm,Calm,-,N/A,,Overcast,0,2013-02-26 01:55:00
9:15 PM,50.0,40.6,70,29.88,10.0,North,4.6,-,N/A,,Overcast,10,2013-02-26 02:15:00
9:35 PM,50.2,40.6,70,29.87,10.0,North,4.6,-,N/A,,Overcast,360,2013-02-26 02:35:00
9:55 PM,50.4,40.8,70,29.86,10.0,Calm,Calm,-,N/A,,Overcast,0,2013-02-26 02:55:00
10:15 PM,49.5,41.4,74,29.85,10.0,Calm,Calm,-,N/A,,Overcast,0,2013-02-26 03:15:00
10:35 PM,49.8,42.4,76,29.85,10.0,North,4.6,-,N/A,,Overcast,350,2013-02-26 03:35:00
10:55 PM,52.2,42.8,70,29.84,10.0,West,6.9,-,N/A,,Overcast,270,2013-02-26 03:55:00
11:15 PM,54.1,43.7,68,29.83,10.0,NW,3.5,-,N/A,,Overcast,310,2013-02-26 04:15:00
11:35 PM,54.3,44.2,69,29.82,10.0,SSW,3.5,16.1,N/A,,Overcast,210,2013-02-26 04:35:00
11:55 PM,54.1,44.2,69,29.81,10.0,WSW,10.4,-,N/A,,Overcast,240,2013-02-26 04:55:00